User: anonymous   Login
Location: Darlington Observatory
(36.4817°N, 105.8156°W)
Time: 18:02:02
(UTC-06:00)
Language:

MOS 1 - Orbit

View from above orbital plane
View from above orbital plane
View from above satellite
View from above satellite

Ground track
Ground track

The orbit data is extracted from the following two-line orbital elements,

1 17527U 87018A   16270.56885366 -.00000233  00000-0 -12141-3 0  9991
2 17527  99.2722 274.2755 0007685 302.1615 165.7874 14.02463040512506
Epoch (UTC): 26 September 2016 13:39:08
Eccentricity: 0.0007685
inclination: 99.2722°
perigee height: 879 km
apogee height: 891 km
right ascension of ascending node: 274.2755°
argument of perigee: 302.1615°
revolutions per day: 14.02463040
mean anomaly at epoch: 165.7874°
orbit number at epoch: 51250

The dashed part of the orbit path shows where the satellite is in the earth's shadow,  

DLR